Hourly Data Report for October 26, 2016

All times are specified in Local Standard Time (LST). Add 1 hour to adjust for Daylight Saving Time where and when it is observed.

FREDERICTON
NEW BRUNSWICK

45°52'08.000" N
66°32'14.000" W
20.70 m
8101505
71700
YFC

Download Data

Hourly Data (October 2016)
Hourly Data Report for October 26, 2016
Temp Definition
°C
Dew Point Temp Definition
°C
Rel Hum Definition
%
Wind Dir Definition
10's deg

Wind Spd Definition
km/h
Visibility Definition
km
Stn Press Definition
kPa
Hmdx Definition


Wind Chill Definition


Weather Definition


TIME
00:00 Legend Double Dagger 4.5 3.5 93 33 15 16.1 101.44     Rain
01:00 Legend Double Dagger 4.3 2.9 91 35 17 16.1 101.50     LegendNANA
02:00 Legend Double Dagger 4.2 2.7 90 34 17 16.1 101.57     LegendNANA
03:00 Legend Double Dagger 4.0 2.4 89 36 18 16.1 101.61     LegendNANA
04:00 Legend Double Dagger 3.8 2.1 89 35 17 16.1 101.66     LegendNANA
05:00 Legend Double Dagger 3.4 1.6 88 35 18 16.1 101.73     LegendNANA
06:00 Legend Double Dagger 3.1 1.3 88 35 17 16.1 101.81     LegendNANA
07:00 Legend Double Dagger 2.9 1.1 88 33 15 16.1 101.91     LegendNANA
08:00 Legend Double Dagger 3.1 1.3 88 34 17 16.1 101.99     LegendNANA
09:00 Legend Double Dagger 3.8 1.6 85 35 21 16.1 102.05     LegendNANA
10:00 Legend Double Dagger 4.9 2.4 84 35 15 16.1 102.08     LegendNANA
11:00 Legend Double Dagger 5.4 2.5 81 36 21 16.1 102.12     Rain
12:00 Legend Double Dagger 6.2 2.5 77 36 22 16.1 102.11     LegendNANA
13:00 Legend Double Dagger 6.7 2.3 73 1 24 16.1 102.13     LegendNANA
14:00 Legend Double Dagger 6.4 3.0 79 34 24 16.1 102.18     Rain
15:00 Legend Double Dagger 5.8 2.8 81 2 18 16.1 102.23     Rain
16:00 Legend Double Dagger 6.0 2.3 77 1 24 16.1 102.27     LegendNANA
17:00 Legend Double Dagger 5.3 2.4 81 36 17 16.1 102.33     LegendNANA
18:00 Legend Double Dagger 4.1 2.3 88 35 21 16.1 102.42     LegendNANA
19:00 Legend Double Dagger 3.7 1.7 87 34 17 16.1 102.47     LegendNANA
20:00 Legend Double Dagger 3.2 1.3 87 35 15 16.1 102.51     LegendNANA
21:00 Legend Double Dagger 2.6 0.8 88 1 11 16.1 102.58     LegendNANA
22:00 Legend Double Dagger 2.1 0.5 89 35 11 16.1 102.64     LegendNANA
23:00 Legend Double Dagger 2.6 0.7 87 36 13 16.1 102.66     LegendNANA

Notes on Data Quality.

Legend

  • E = Estimated
  • M = Missing
  • NA = Not Available
  • ‡ = Partner data that is not subject to review by the National Climate Archives
Date modified: